User: anonymous   Login
Location: Unspecified
(0.0000°N, 0.0000°E)
Time: 19:26:35
(UTC+00:00)
Language:

YUNHAI 2 6 - Orbit

View from above orbital plane
View from above orbital plane
View from above satellite
View from above satellite

Ground track
Ground track

The orbit is defined by the following mean orbital elements,

1 43915U          26145.58387175 +.00000000 +00000-0 +15626-3 0 00000
2 43915  50.0124 323.5985 0006938 246.6572 113.3614 14.29019357    09
Epoch (UTC): 25 May 2026 14:00:46
Eccentricity: 0.0006938
inclination: 50.0124°
perigee height: 790 km
apogee height: 800 km
right ascension of ascending node: 323.5985°
argument of perigee: 246.6572°
revolutions per day: 14.29019357
mean anomaly at epoch: 113.3614°

The dashed part of the orbit path shows where the satellite is in the earth's shadow,  

DLR